Total_Precipitation_Accumulation
0.12 0.10 0.15 0.27 0.34 0.30 0.32 0.37 0.43 0.47 0.56 0.70 0.81 0.85 0.82 0.73 0.57 0.48 0.40 0.30 0.24 0.24 0.31 0.36 0.45 0.50 0.58 0.71 0.91 0.95 0.78 0.57 0.50 0.48 0.44 0.35 0.30 0.30 0.29 0.29 0.27 0.29 0.26 0.28
0.13 0.08 0.09 0.11 0.10 0.10 0.12 0.15 0.22 0.31 0.46 0.55 0.59 0.58 0.53 0.42 0.29 0.25 0.22 0.16 0.13 0.14 0.17 0.18 0.20 0.27 0.39 0.47 0.53 0.50 0.41 0.34 0.31 0.28 0.24 0.22 0.20 0.19 0.16 0.15 0.14 0.18 0.20 0.23
0.23 0.10 0.11 0.10 0.05 0.07 0.13 0.15 0.22 0.37 0.45 0.39 0.37 0.36 0.34 0.25 0.16 0.15 0.12 0.10 0.08 0.09 0.12 0.11 0.10 0.11 0.13 0.17 0.23 0.23 0.16 0.13 0.15 0.17 0.14 0.12 0.11 0.12 0.13 0.13 0.11 0.13 0.16 0.21
0.29 0.24 0.20 0.07 0.03 0.05 0.09 0.14 0.21 0.31 0.30 0.24 0.20 0.17 0.17 0.12 0.10 0.09 0.08 0.06 0.06 0.06 0.08 0.08 0.10 0.11 0.10 0.10 0.13 0.17 0.13 0.09 0.09 0.13 0.13 0.13 0.14 0.15 0.12 0.10 0.10 0.14 0.16 0.22
0.33 0.34 0.17 0.05 0.04 0.04 0.05 0.07 0.08 0.10 0.10 0.09 0.07 0.08 0.09 0.08 0.07 0.07 0.06 0.06 0.06 0.07 0.08 0.08 0.11 0.12 0.09 0.07 0.08 0.11 0.11 0.11 0.10 0.12 0.13 0.12 0.12 0.11 0.10 0.09 0.10 0.13 0.16 0.18
0.31 0.33 0.21 0.08 0.05 0.04 0.05 0.07 0.05 0.04 0.04 0.04 0.04 0.09 0.09 0.07 0.05 0.06 0.07 0.06 0.07 0.09 0.11 0.10 0.11 0.11 0.09 0.08 0.07 0.07 0.10 0.12 0.14 0.15 0.13 0.12 0.14 0.15 0.13 0.11 0.11 0.12 0.14 0.14
0.27 0.31 0.15 0.06 0.06 0.06 0.09 0.08 0.05 0.04 0.04 0.04 0.06 0.07 0.06 0.05 0.06 0.06 0.09 0.10 0.09 0.11 0.11 0.11 0.11 0.11 0.09 0.07 0.07 0.09 0.10 0.12 0.12 0.12 0.12 0.14 0.16 0.19 0.18 0.15 0.13 0.12 0.13 0.13
0.24 0.28 0.14 0.05 0.06 0.07 0.07 0.05 0.04 0.04 0.04 0.04 0.05 0.06 0.05 0.06 0.06 0.06 0.08 0.10 0.10 0.10 0.09 0.11 0.11 0.10 0.09 0.08 0.10 0.11 0.11 0.13 0.12 0.11 0.14 0.16 0.17 0.15 0.13 0.13 0.12 0.11 0.10 0.10
0.19 0.15 0.08 0.07 0.07 0.07 0.05 0.05 0.03 0.03 0.04 0.04 0.03 0.04 0.05 0.05 0.05 0.06 0.07 0.08 0.08 0.09 0.10 0.11 0.13 0.12 0.12 0.12 0.13 0.11 0.10 0.12 0.14 0.15 0.17 0.19 0.18 0.16 0.15 0.13 0.13 0.13 0.11 0.11
0.15 0.09 0.06 0.08 0.07 0.06 0.05 0.05 0.04 0.03 0.03 0.04 0.03 0.04 0.04 0.04 0.04 0.05 0.07 0.07 0.09 0.10 0.11 0.12 0.15 0.16 0.16 0.16 0.13 0.11 0.10 0.12 0.15 0.17 0.20 0.21 0.20 0.17 0.15 0.14 0.15 0.16 0.15 0.14
0.13 0.09 0.07 0.07 0.06 0.05 0.03 0.05 0.04 0.04 0.03 0.04 0.04 0.04 0.04 0.04 0.05 0.05 0.05 0.05 0.07 0.08 0.09 0.11 0.13 0.13 0.13 0.12 0.11 0.10 0.10 0.13 0.16 0.17 0.19 0.21 0.20 0.19 0.18 0.17 0.17 0.19 0.18 0.19
0.14 0.12 0.12 0.09 0.07 0.05 0.05 0.08 0.06 0.06 0.06 0.05 0.05 0.04 0.05 0.07 0.08 0.07 0.06 0.06 0.06 0.08 0.09 0.09 0.10 0.09 0.10 0.11 0.11 0.10 0.09 0.11 0.14 0.16 0.18 0.19 0.21 0.21 0.22 0.20 0.20 0.20 0.19 0.18
0.14 0.12 0.12 0.10 0.07 0.07 0.08 0.09 0.06 0.07 0.07 0.05 0.04 0.05 0.05 0.07 0.08 0.08 0.09 0.10 0.10 0.11 0.12 0.11 0.11 0.13 0.12 0.13 0.12 0.11 0.11 0.13 0.14 0.14 0.14 0.16 0.20 0.23 0.26 0.26 0.22 0.20 0.20 0.20
0.10 0.10 0.11 0.11 0.09 0.08 0.08 0.08 0.08 0.07 0.06 0.05 0.05 0.07 0.08 0.09 0.08 0.09 0.09 0.10 0.12 0.12 0.13 0.13 0.15 0.16 0.15 0.15 0.16 0.16 0.16 0.16 0.17 0.16 0.16 0.19 0.19 0.19 0.22 0.25 0.25 0.22 0.19 0.18
0.08 0.08 0.10 0.10 0.10 0.09 0.07 0.08 0.08 0.07 0.05 0.04 0.04 0.07 0.09 0.10 0.09 0.07 0.06 0.07 0.09 0.09 0.09 0.10 0.11 0.13 0.13 0.14 0.17 0.19 0.20 0.18 0.19 0.19 0.18 0.18 0.17 0.16 0.17 0.17 0.18 0.19 0.19 0.19
0.08 0.07 0.07 0.08 0.09 0.08 0.07 0.07 0.07 0.06 0.05 0.05 0.05 0.06 0.09 0.10 0.09 0.07 0.08 0.08 0.08 0.10 0.10 0.10 0.10 0.12 0.14 0.15 0.14 0.15 0.18 0.22 0.21 0.20 0.19 0.17 0.18 0.17 0.16 0.18 0.19 0.20 0.20 0.22
0.10 0.10 0.08 0.08 0.08 0.08 0.07 0.07 0.06 0.05 0.05 0.05 0.06 0.09 0.12 0.13 0.11 0.09 0.09 0.11 0.11 0.12 0.13 0.11 0.12 0.14 0.15 0.17 0.15 0.13 0.17 0.22 0.22 0.19 0.17 0.17 0.19 0.21 0.20 0.20 0.20 0.20 0.20 0.21
0.10 0.10 0.08 0.08 0.08 0.07 0.07 0.06 0.05 0.06 0.06 0.05 0.06 0.09 0.17 0.19 0.14 0.10 0.09 0.12 0.14 0.14 0.14 0.14 0.14 0.16 0.16 0.16 0.17 0.15 0.15 0.18 0.19 0.21 0.21 0.21 0.21 0.23 0.23 0.22 0.21 0.20 0.20 0.21
0.08 0.09 0.08 0.08 0.08 0.06 0.08 0.08 0.07 0.06 0.06 0.06 0.08 0.12 0.19 0.18 0.14 0.11 0.10 0.12 0.13 0.14 0.14 0.16 0.20 0.19 0.18 0.17 0.17 0.14 0.14 0.16 0.16 0.20 0.23 0.25 0.25 0.25 0.22 0.20 0.21 0.20 0.21 0.22
0.09 0.09 0.09 0.08 0.08 0.07 0.10 0.10 0.08 0.07 0.06 0.08 0.11 0.14 0.17 0.16 0.14 0.13 0.12 0.12 0.12 0.14 0.15 0.17 0.19 0.18 0.17 0.19 0.19 0.17 0.17 0.19 0.17 0.18 0.20 0.22 0.24 0.26 0.26 0.22 0.22 0.22 0.21 0.23
0.11 0.11 0.10 0.09 0.10 0.09 0.11 0.12 0.10 0.09 0.08 0.10 0.14 0.18 0.19 0.19 0.18 0.17 0.17 0.16 0.14 0.16 0.17 0.19 0.20 0.19 0.18 0.21 0.20 0.20 0.22 0.23 0.21 0.20 0.20 0.21 0.23 0.25 0.26 0.25 0.23 0.23 0.24 0.24
0.12 0.14 0.12 0.10 0.12 0.12 0.13 0.13 0.11 0.09 0.08 0.09 0.13 0.16 0.18 0.21 0.22 0.20 0.19 0.18 0.20 0.22 0.20 0.19 0.22 0.24 0.23 0.23 0.20 0.22 0.25 0.26 0.25 0.23 0.24 0.24 0.25 0.27 0.28 0.27 0.26 0.25 0.24 0.25
0.11 0.13 0.13 0.11 0.12 0.12 0.13 0.13 0.12 0.11 0.10 0.10 0.14 0.14 0.14 0.18 0.19 0.20 0.20 0.20 0.22 0.25 0.22 0.21 0.26 0.26 0.26 0.22 0.20 0.23 0.25 0.26 0.27 0.28 0.28 0.29 0.30 0.29 0.27 0.27 0.28 0.28 0.27 0.26
0.13 0.13 0.13 0.12 0.13 0.14 0.14 0.12 0.11 0.12 0.13 0.14 0.16 0.15 0.16 0.17 0.19 0.21 0.22 0.24 0.25 0.27 0.26 0.28 0.31 0.29 0.27 0.22 0.23 0.25 0.26 0.26 0.28 0.29 0.28 0.28 0.29 0.30 0.30 0.29 0.30 0.30 0.30 0.29
0.17 0.17 0.15 0.15 0.16 0.18 0.18 0.15 0.13 0.13 0.16 0.19 0.20 0.19 0.19 0.21 0.24 0.25 0.25 0.25 0.27 0.28 0.29 0.32 0.32 0.32 0.28 0.25 0.26 0.27 0.26 0.26 0.28 0.29 0.28 0.29 0.30 0.32 0.33 0.33 0.32 0.31 0.31 0.32
0.19 0.18 0.17 0.17 0.19 0.22 0.21 0.19 0.19 0.18 0.22 0.26 0.26 0.24 0.21 0.21 0.22 0.23 0.25 0.28 0.30 0.32 0.32 0.32 0.32 0.31 0.28 0.29 0.29 0.28 0.27 0.29 0.31 0.30 0.31 0.33 0.35 0.37 0.39 0.38 0.36 0.35 0.33 0.34
0.24 0.21 0.21 0.21 0.21 0.23 0.22 0.22 0.24 0.26 0.29 0.32 0.32 0.29 0.27 0.25 0.24 0.25 0.26 0.28 0.30 0.30 0.30 0.31 0.32 0.32 0.33 0.33 0.33 0.32 0.32 0.33 0.35 0.35 0.35 0.38 0.39 0.40 0.42 0.43 0.43 0.41 0.41 0.42